Location: Skymont Scout Reservation
(35.4344°N, 85.8742°W)
Time: 12:18:42
(UTC-06:00)

ISS - All Passes

Search period start: 21 January 2018 00:00
Search period end: 31 January 2018 00:00
Orbit: 402 x 407 km, 51.6° (Epoch: 22 January)

Date Brightness Start Highest point End Pass type
(mag) Time Alt. Az. Time Alt. Az. Time Alt. Az.
21 Jan - 02:32:56 10° NNW 02:35:46 26° NE 02:38:36 10° E night (unlit)
21 Jan - 04:09:26 10° WNW 04:12:11 25° SW 04:14:56 10° S night (unlit)
21 Jan - 19:10:24 10° SSW 19:13:26 38° SE 19:16:30 10° ENE visible
21 Jan - 20:47:32 10° W 20:50:01 20° NNW 20:52:30 10° NNE night (unlit)
22 Jan - 01:41:08 10° NNW 01:43:18 16° NNE 01:45:29 10° ENE night (unlit)
22 Jan - 03:16:48 10° WNW 03:20:01 55° SW 03:23:13 10° SSE night (unlit)
22 Jan - 18:18:58 10° S 18:21:18 18° SE 18:23:38 10° E visible
22 Jan - 19:54:34 10° WSW 19:57:35 34° NW 20:00:36 10° NNE visible
23 Jan - 00:49:51 10° N 00:50:44 11° NNE 00:51:37 10° NE night (unlit)
23 Jan - 02:24:29 10° NW 02:27:45 66° NE 02:30:59 10° SE night (unlit)
23 Jan - 19:01:59 10° SW 19:05:12 70° NW 19:08:29 10° NE visible
23 Jan - 20:41:11 10° NW 20:42:12 11° NNW 20:43:13 10° N night (unlit)
24 Jan - 01:32:22 10° NNW 01:35:22 32° NE 01:38:21 10° ESE night (unlit)
24 Jan - 03:09:13 10° W 03:11:40 20° SW 03:14:07 10° S night (unlit)
24 Jan - 18:09:46 10° SSW 18:12:56 51° SE 18:16:07 10° ENE visible
24 Jan - 19:47:24 10° WNW 19:49:37 17° NNW 19:51:50 10° NNE visible
25 Jan - 00:40:27 10° NNW 00:42:54 19° NNE 00:45:19 10° E night (unlit)
25 Jan - 02:16:23 10° WNW 02:19:30 41° SW 02:22:35 10° SSE night (unlit)
25 Jan - 17:18:03 10° S 17:20:43 23° SE 17:23:24 10° ENE daylight
25 Jan - 18:54:15 10° W 18:57:06 27° NW 18:59:58 10° NNE visible
25 Jan - 23:48:51 10° N 23:50:19 12° NNE 23:51:47 10° NE night (unlit)
26 Jan - 01:23:56 10° NW 01:27:13 86° NE 01:30:29 10° SE night (unlit)
26 Jan - 16:27:27 10° SSE 16:28:35 11° SE 16:29:42 10° ESE daylight
26 Jan - 18:01:29 10° WSW 18:04:40 53° NW 18:07:52 10° NE visible
27 Jan - 00:31:43 10° NW 00:34:50 40° NE 00:37:56 10° ESE night (unlit)
27 Jan - 02:09:02 10° W 02:11:03 15° SW 02:13:03 10° SSW night (unlit)
27 Jan - 17:09:06 10° SW 17:12:19 69° SE 17:15:34 10° NE daylight
27 Jan - 18:47:12 10° WNW 18:49:06 14° NNW 18:51:00 10° N visible
27 Jan - 23:39:41 10° NNW 23:42:21 22° NNE 23:45:01 10° E night (unlit)
28 Jan - 01:15:54 10° WNW 01:18:51 31° SW 01:21:47 10° SSE night (unlit)
28 Jan - 16:17:09 10° SSW 16:20:03 30° SE 16:22:57 10° ENE daylight
28 Jan - 17:53:51 10° W 17:56:32 23° NNW 17:59:12 10° NNE visible
28 Jan - 22:47:54 10° N 22:49:46 14° NNE 22:51:38 10° ENE night (unlit)
29 Jan - 00:23:18 10° NW 00:26:34 72° SW 00:29:49 10° SE night (unlit)
29 Jan - 15:25:56 10° SSE 15:27:50 15° SE 15:29:45 10° E daylight
29 Jan - 17:00:55 10° WSW 17:04:01 41° NW 17:07:09 10° NE daylight
29 Jan - 23:30:59 10° NW 23:34:11 51° NE 23:37:22 10° ESE night (unlit)
30 Jan - 01:08:59 10° WSW 01:10:17 12° SW 01:11:35 10° SSW night (unlit)
30 Jan - 16:08:21 10° SW 16:11:36 89° NW 16:14:52 10° NE daylight
30 Jan - 17:46:58 10° NW 17:48:29 13° NNW 17:49:59 10° N visible
30 Jan - 22:38:51 10° NNW 22:41:41 27° NE 22:44:31 10° E night (unlit)
